Location: Notre Dame Regional High School Observatory
(37.3056°N, 89.6097°W)
Time: 00:18:18
(UTC-06:00)

Okean 2 Rocket - Visible Passes

Search period start: 29 January 2015 00:00
Search period end: 08 February 2015 00:00
Orbit: 617 x 644 km, 82.5° (Epoch: 28 January)

Date Brightness Start Highest point End Pass type
(mag) Time Alt. Az. Time Alt. Az. Time Alt. Az.
29 Jan 6.3 04:34:18 10° NE 04:35:19 11° ENE 04:36:36 10° E visible
29 Jan 3.1 06:09:35 10° NNW 06:13:56 57° W 06:18:15 10° S visible
29 Jan 3.2 18:40:16 10° S 18:44:40 78° W 18:49:05 10° N visible
30 Jan 5.5 04:53:10 10° NNE 04:56:36 22° ENE 05:00:07 10° SE visible
30 Jan 4.0 06:30:59 10° NNW 06:34:44 27° W 06:38:24 10° SSW visible
30 Jan 4.7 19:01:36 10° SW 19:05:40 35° WNW 19:09:42 10° NNW visible
31 Jan 4.1 05:13:26 10° N 05:17:41 46° E 05:21:58 10° SSE visible
31 Jan 3.7 17:44:36 10° SSE 17:48:33 34° E 17:52:33 10° NNE visible
31 Jan 5.9 19:23:47 10° WSW 19:26:49 18° WNW 19:29:43 10° NNW visible
01 Feb 3.0 05:34:12 10° N 05:38:38 81° W 05:43:04 10° S visible
01 Feb 3.0 18:04:58 10° S 18:09:22 75° E 18:13:46 10° N visible
02 Feb 5.9 04:18:24 10° NNE 04:21:09 17° ENE 04:24:04 10° ESE visible
02 Feb 3.6 05:55:23 10° NNW 05:59:28 37° W 06:03:32 10° SSW visible
02 Feb 4.1 18:26:01 10° SSW 18:30:17 49° W 18:34:34 10° N visible
03 Feb 4.7 04:38:19 10° NNE 04:42:19 33° ENE 04:46:22 10° SE visible
03 Feb 4.5 06:17:10 10° NW 06:20:14 18° W 06:23:08 10° SW visible
03 Feb 5.5 18:47:46 10° SW 18:51:22 24° WNW 18:54:54 10° NNW visible
04 Feb 3.2 04:59:38 15° N 05:03:20 72° E 05:07:46 10° SSE visible
04 Feb 6.3 19:10:58 10° W 19:12:38 12° WNW 19:14:03 10° NW visible
05 Feb 6.2 03:44:44 11° ENE 03:45:39 12° ENE 03:47:34 10° E visible
05 Feb 3.1 05:22:14 29° NNW 05:24:12 52° W 05:28:31 10° S visible
05 Feb 3.4 17:50:34 10° SSW 17:54:57 70° W 17:59:20 10° N visible
06 Feb 5.2 04:07:20 24° E 04:07:20 24° E 04:10:36 10° SE visible
06 Feb 4.1 05:44:50 24° W 05:44:59 24° W 05:48:32 10° SW visible
06 Feb 5.0 18:11:59 10° SW 18:15:57 32° WNW 18:19:53 10° NNW visible
07 Feb 4.6 04:29:54 30° SE 04:29:54 30° SE 04:32:20 10° SSE visible
07 Feb 6.0 18:34:19 10° WSW 18:37:08 16° WNW 18:39:46 10° NW visible
